STARLINK-34060, 63815

Orbit data source: Space-Track

STARLINK-34060, 63815 is a payload satellite owned by SpaceX/Seattle (US) in LEO that was launched on Sun, 04 May 2025 UTC via an FALCON 9 launch vehicle from the Air Force Eastern Test Range (AFETR). Payload-class satellites include a variety of spacecraft equipped with specific instruments for various scientific and technological missions. These include communications satellites like Starlink; space stations such as the ISS; scientific satellites like the Hubble; Earth observation satellites from companies like Planet Labs, Umbra, and HawkEye 360; GPS; miniature CubeSats for education and research; and military/defense satellites.

Loading next visibility...
Identifier
63815, 2025-092M
Orbit
LEO
Country
Flag of USUS
Related business
Manufacturer
SpaceX/Seattle
Mission
Operational Commercial Communications
Bus & Motor
STARLINK V2MO, Unknown motor
Mass
575 kg wet, ~530 kg dry
Launch date (UTC)
2025-05-04 (10 months ago)
Launch vehicle
FALCON 9
Launch site
Air Force Eastern Test Range (AFETR)
Object type
Payload
Rocket body
Debris
Shape & HBR
Box + 2 Pan, 17.7 m
Radar Cross Section
36.964 m², Large (>1 m²)

Expand to show TLE details & history
Last TLE update: 15 hours ago

TLE from 15 hours ago
0 STARLINK-34060
1 63815U 25092M   26061.46989169  .00037136  00000-0  13517-2 0  9997
2 63815  43.0011 213.0476 0001529 259.6781 100.3898 15.27591496 47450
Epoch: 2026-03-02T11:16Z
TLE epoch observation values (Epoch: 2026-03-02T11:16:38.642Z)
Latitude
-0.00002°
Longitude
-116.37628°
Altitude
482.98 km
Speed
7.626 km/s
True Right ascension
14h 12m 11s
True Declination
0° 00' 00"
Sunlit
Object was in full shadow at epoch
Visualization orbit readout
Latitude
Unknown
Longitude
Unknown
Altitude
Unknown
Speed
Unknown
Apparent Right ascension
Unknown
Apparent Declination
Unknown
Sunlit
N/A
Visualization observer readout
Local Sidereal Time
05:54:25
Azimuth
Unknown
Elevation
Unknown
Doppler factor
Unknown
Orbital elements
Apogee altitude
486.009 km
Perigee altitude
483.91 km
Semi-major axis
6,863.097 km
Eccentricity
0.00015
Inclination
43.0011°
RAAN
213.0476°
Arg. of periapsis
259.6781°
True anomaly
100.40703°
Mean anomaly
100.3898°
Eccentric anomaly
100.39842°
Mean motion
3.81736 °/min
Orbital period
94.31 mins
BSTAR
0.0013517
Loading maneuver chart data...
Computing Atmospheric mass density...
Loading historical data...
Loading historical data...
Loading historical data...
Loading historical data...
Loading historical data...
Loading historical data...
Loading historical data...

Documentation

Showing up to 5 results
|